This demonstration page uses our WeatherBlox Daily Observations layout. Learn more.

Left ArrowRight Arrow

38.88101, -77.10428

Hourly Observations for December 14, 2015

Temp ( °F °C ) Dew Point ( °F °C ) Humidity (%) Winds ( mph kmh ) Pressure ( in mb ) Visibility ( mi km ) Precip ( " mm )
12:52 am 00:52 Cloudy 58 14.4 55 12.8 90 90 S 10 17 30.01 1016 10 16 N/A
1:52 am 01:52 Clear 57 13.9 54 12.2 90 90 SSW 5 7 30.00 1016 10 16 N/A
2:52 am 02:52 Mostly Cloudy 57 13.9 54 12.2 90 90 S 10 17 29.99 1016 10 16 N/A
3:52 am 03:52 Mostly Cloudy 56 13.3 54 12.2 93 93 S 10 17 29.97 1015 10 16 N/A
4:52 am 04:52 Mostly Cloudy 56 13.3 54 12.2 93 93 S 10 17 29.95 1014 10 16 N/A
5:52 am 05:52 Cloudy 58 14.4 56 13.3 93 93 SSW 6 9 29.93 1014 10 16 N/A
6:52 am 06:52 Cloudy 56 13.3 54 12.2 93 93 S 10 17 29.91 1013 9 14 N/A
7:25 am 07:25 Cloudy 55 12.8 54 12.2 96 96 S 10 17 29.91 1013 7 11 N/A
7:47 am 07:47 Cloudy 59 15 57 14 94 94 S 10 17 29.91 1013 10 16 N/A
7:52 am 07:52 Cloudy 58 14.4 57 13.9 97 97 S 10 17 29.91 1013 10 16 N/A
8:52 am 08:52 Cloudy with Mist and Fog 58 14.4 57 13.9 97 97 S 10 17 29.88 1012 6 10 N/A
9:30 am 09:30 Cloudy 57 14 57 14 100 100 S 10 17 29.88 1012 9 14 N/A
9:52 am 09:52 Cloudy 59 15 58 14.4 96 96 S 10 17 29.88 1012 10 16 N/A
10:09 am 10:09 Cloudy 62 16.7 60 15.6 93 93 S 7 11 29.88 1012 10 16 N/A
10:52 am 10:52 Cloudy 62 16.7 59 15 90 90 S 12 19 29.85 1011 10 16 N/A
11:01 am 11:01 Cloudy 63 17.2 59 15 87 87 S 9 15 29.85 1011 10 16 N/A
11:32 am 11:32 Cloudy 64 18 61 16 88 88 S 9 15 29.83 1010 10 16 N/A
11:52 am 11:52 Mostly Cloudy 67 19.4 61 16.1 81 81 SSW 13 20 29.83 1010 10 16 N/A
12:06 pm 12:06 Mostly Cloudy 66 18.9 60 15.6 81 81 S 8 13 29.80 1009 10 16 N/A
12:52 pm 12:52 Cloudy 67 19.4 60 15.6 79 79 S 8 13 29.77 1008 10 16 N/A
1:52 pm 13:52 Cloudy 66 18.9 59 15 78 78 S 12 19 29.73 1007 10 16 N/A
2:52 pm 14:52 Cloudy 66 18.9 58 14.4 75 75 S 12 19 29.68 1005 10 16 N/A
3:52 pm 15:52 Cloudy 66 18.9 58 14.4 75 75 SSE 12 19 29.64 1004 10 16 N/A
4:52 pm 16:52 Cloudy with Light Rain 65 18.3 58 14.4 78 78 S 20 31 29.62 1003 8 13 N/A
4:56 pm 16:56 Cloudy with Rain 64 18 59 15 83 83 S 17 28 29.62 1003 6 10 N/A
4:59 pm 16:59 Cloudy with Light Rain 63 17.2 59 15 87 87 S 16 26 29.62 1003 4 6 0.01 0.25
5:52 pm 17:52 Cloudy with Light Rain 60 15.6 59 15 96 96 S 13 20 29.61 1003 6 10 0.11 2.79
5:54 pm 17:54 Cloudy with Light Rain 61 16 61 16 100 100 S 13 20 29.59 1002 7 11 N/A
6:03 pm 18:03 Cloudy with Light Rain 63 17 61 16 94 94 S 10 17 29.59 1002 9 14 N/A
6:52 pm 18:52 Cloudy 63 17.2 62 16.7 97 97 S 12 19 29.57 1001 10 16 0.01 0.25
7:14 pm 19:14 Cloudy with Light Rain 64 18 63 17 94 94 S 10 17 29.56 1001 10 16 N/A
7:44 pm 19:44 Cloudy 66 19 64 18 94 94 SSW 13 20 29.56 1001 10 16 N/A
7:52 pm 19:52 Cloudy 66 18.9 64 17.8 93 93 S 14 22 29.54 1001 10 16 0.01 0.25
8:52 pm 20:52 Cloudy 62 16.7 61 16.1 96 96 S 13 20 29.51 999 10 16 N/A
9:35 pm 21:35 Cloudy 63 17.2 62 16.7 97 97 S 9 15 29.50 999 10 16 N/A
9:37 pm 21:37 Cloudy 64 17.8 62 16.7 93 93 S 10 17 29.50 999 10 16 N/A
9:40 pm 21:40 Cloudy 63 17 63 17 100 100 S 9 15 29.50 999 10 16 N/A
9:52 pm 21:52 Cloudy 63 17.2 62 16.7 97 97 S 10 17 29.49 999 10 16 N/A
10:08 pm 22:08 Cloudy 63 17 63 17 100 100 SSW 10 17 29.50 999 10 16 N/A
10:18 pm 22:18 Cloudy 68 20 64 18 88 88 SSW 13 20 29.50 999 10 16 N/A
10:20 pm 22:20 Cloudy 68 20 64 18 88 88 SSW 13 20 29.50 999 10 16 N/A
10:24 pm 22:24 Cloudy 66 19 64 18 94 94 SSW 14 22 29.50 999 10 16 N/A
10:52 pm 22:52 Mostly Clear 67 19.4 64 17.8 91 91 SSW 15 24 29.48 998 10 16 N/A
11:52 pm 23:52 Mostly Clear 67 19.4 63 17.2 87 87 SSW 15 24 29.47 998 10 16 N/A

Powered by AerisWeather